This is the latest recevied weather packets stored in our database for station/object N3LF. If no packets are shown the sender has not sent any weather packets the latest 10 day(s).
| Time | Temp. | Humidity | Pressure | Rain* | Wind** | Luminosity | Snow |
|---|---|---|---|---|---|---|---|
| 1777522326 | 15° C | 69% | 1017.4 hPa | 0 mm | - | 0 W/m² | - |
| 1777522023 | 15° C | 69% | 1017.3 hPa | 0 mm | - | 0 W/m² | - |
| 1777521720 | 15.56° C | 69% | 1017.4 hPa | 0 mm | - | 0 W/m² | - |
| 1777521417 | 15.56° C | 70% | 1017.4 hPa | 0 mm | - | 0 W/m² | - |
| 1777521113 | 15° C | 70% | 1017.2 hPa | 0 mm | - | 0 W/m² | - |
| 1777520811 | 15° C | 71% | 1017.6 hPa | 0 mm | - | 0 W/m² | - |
| 1777520508 | 15° C | 71% | 1017.6 hPa | 0 mm | - | 0 W/m² | - |
| 1777520204 | 15° C | 73% | 1017.3 hPa | 0 mm | - | 0 W/m² | - |
| 1777519902 | 15° C | 71% | 1017.3 hPa | 0 mm | - | 0 W/m² | - |
| 1777519599 | 15° C | 72% | 1017.3 hPa | 0 mm | - | 0 W/m² | - |
| 1777519295 | 15.56° C | 72% | 1017.8 hPa | 0 mm | - | 0 W/m² | - |
| 1777518992 | 15° C | 72% | 1017.8 hPa | 0 mm | - | 0 W/m² | - |
| 1777518688 | 15° C | 73% | 1017.6 hPa | 0 mm | - | 0 W/m² | - |
| 1777518386 | 15° C | 74% | 1018.3 hPa | 0 mm | - | 0 W/m² | - |
| 1777518081 | 15° C | 74% | 1018.4 hPa | 0 mm | - | 0 W/m² | - |
| 1777517777 | 15.56° C | 74% | 1018.4 hPa | 0 mm | - | 0 W/m² | - |
| 1777517473 | 15.56° C | 73% | 1018.4 hPa | 0 mm | - | 0 W/m² | - |
| 1777517172 | 15.56° C | 72% | 1018.2 hPa | 0 mm | - | 0 W/m² | - |
| 1777516870 | 15.56° C | 74% | 1018.4 hPa | 0 mm | - | 0 W/m² | - |
| 1777516566 | 15.56° C | 71% | 1018.2 hPa | 0 mm | - | 0 W/m² | - |
| 1777516262 | 15.56° C | 71% | 1018 hPa | 0 mm | - | 0 W/m² | - |
| 1777515958 | 15.56° C | 72% | 1018.1 hPa | 0 mm | - | 0 W/m² | - |
| 1777515655 | 15.56° C | 72% | 1017.8 hPa | 0 mm | - | 0 W/m² | - |
| 1777515352 | 15.56° C | 72% | 1017.7 hPa | 0 mm | - | 0 W/m² | - |
| 1777515048 | 16.11° C | 71% | 1017.6 hPa | 0 mm | - | 0 W/m² | - |
* Rain latest hour (hover to see other rain measurements)
** Current wind speed in m/s (hover to see current wind gust speed)